Location: Alulod
(14.2076°N, 120.8898°E)
Time: 02:38:26
(UTC+00:00)

USA 238 DEB - Pass Details

Date: 18 March 2026
Orbit: 883 x 1328 km, 63.4° (Epoch: 10 January)

Event Time Altitude Azimuth Distance (km) Brightness Sun altitude
Rises 19:25:15 0° 358° (N) 4,156 6.9 -38.6°
Reaches altitude 10° 19:28:48 10° 13° (NNE) 3,249 6.4 -37.7°
Maximum altitude 19:34:38 22° 60° (ENE) 2,523 6.1 -36.3°
Drops below altitude 10° 19:40:37 10° 108° (ESE) 3,352 6.9 -34.9°
Sets 19:44:18 0° 122° (ESE) 4,322 7.5 -34.0°
